Weather Roundup
Issued by NWS Springfield, MO

Home | Current Version | Previous Version | Text Only | Print | Product List | Glossary On
Versions: 1 2 3 4 5 6 7 8 9 10 11 12 13 14 15 16 17 18 19 20 21 22 23 24 25 26 27 28 29 30 31 32 33 34 35 36 37 38 39 40 41 42 43 44 45 46 47 48 49 50
000
NZUS99 KSGF 221907
HRRSGF

HOURLY WEATHER
NATIONAL WEATHER SERVICE SPRINGFIELD MO
100 PM CST WED FEB 22 2017

......SGF CWA......

CITY           SKY/WX    TMP DP  RH WIND       PRES   REMARKS
SPRINGFIELD    MOSUNNY   65  56  72 S12       29.79F
JOPLIN         SUNNY     74  49  41 SW16G24   29.77F
WEST PLAINS    PTSUNNY   66  56  70 SW10      29.84F
ROLLA          PTSUNNY   61  56  83 SW12      29.79F
OSAGE BEACH    PTSUNNY   63  55  75 S9        29.80F
BRANSON        MOSUNNY   66  55  68 S6        29.83F

......SURROUNDING SGF CWA......

CITY           SKY/WX    TMP DP  RH WIND       PRES   REMARKS
CHANUTE        SUNNY     77  36  22 S23G30    29.72F
PARSONS        SUNNY     76  41  28 S16G24    29.75F
COFFEYVILLE    SUNNY     75  44  33 S18       29.76F
EMPORIA        SUNNY     76  34  21 SW13      29.71F
GROVE OK       SUNNY     75  52  43 S3        29.80F
ROGERS AR      SUNNY     73  53  49 S12       29.81F
SILOAM SPRINGS SUNNY     72  52  49 S10G17    29.81F
HARRISON AR    SUNNY     68  56  65 SE7       29.82F
NEAR YELLVILLE MOSUNNY   68  54  60 SW5       29.80F

......KANSAS AND MISSOURI......

CITY           SKY/WX    TMP DP  RH WIND       PRES   REMARKS
KANSAS CTY INT MOSUNNY   76  38  25 SW18      29.67F
DOWNTOWN KC    CLOUDY    74  36  25 SW14G23   29.68F
COLUMBIA       PTSUNNY   61  56  83 S17       29.78F
SEDALIA        MOSUNNY   72  51  47 S17G24    29.74F
ST JOSEPH      SUNNY     72  37  28 SW16      29.66F
ST LOUIS       PTSUNNY   64  55  72 SW7       29.79F
SPIRIT OF STL  PTSUNNY   63  57  81 S6        29.77F
KIRKSVILLE     SUNNY     73  46  38 S17G25    29.68F
WICHITA        MOSUNNY   71  44  37 S12       29.73F
TOPEKA         CLOUDY    75  36  24 SW12      29.67F
OLATHE         PTSUNNY   73  38  27 SW16G24   29.71F

......TENNESSEE......

CITY           SKY/WX    TMP DP  RH WIND       PRES   REMARKS
MEMPHIS        MOSUNNY   73  58  59 CALM      29.83F
NASHVILLE      CLOUDY    69  56  62 SE8       29.86F

......ARKANSAS.......

CITY           SKY/WX    TMP DP  RH WIND       PRES   REMARKS
FAYETTEVILLE   SUNNY     74  50  42 SW7       29.81F
FT SMITH       SUNNY     71  56  58 VRB3      29.81F
LITTLE ROCK    CLOUDY    59  59 100 E6        29.88F FOG

......OKLAHOMA.......

CITY           SKY/WX    TMP DP  RH WIND       PRES   REMARKS
TULSA          PTSUNNY   77  42  28 S8        29.76F
PONCA CITY     SUNNY     74  40  29 W9        29.76F
MCALESTER      SUNNY     78  48  34 S9        29.81F
OKLAHOMA CITY  MOSUNNY   78  35  21 S21G26    29.75F

......IOWA............

CITY           SKY/WX    TMP DP  RH WIND       PRES   REMARKS
DES MOINES     MOSUNNY   71  34  25 W24       29.60F
QUAD CITIES    SUNNY     72  52  49 SW15G23   29.64F

......ILLINOIS........

CITY           SKY/WX    TMP DP  RH WIND       PRES   REMARKS
QUINCY         MOSUNNY   67  57  70 S17G23    29.72F
CHICAGO        MOSUNNY   64  53  67 SW12G20   29.70F



USA.gov is the U.S. government's official web portal to all federal, state and local government web resources and services.